RH
41 42 42 44 42 43 50 52 50 46 45 43 40 38 36 36 38 39 38 35 30 26 23 22 21 21 21 19 18 17 16 15 13 12 10 9 9 9 9 9 9 9 9 10 11 13 14 16 17 18 20 20 20 19 17 15 16 19 22 23 23 22 21 19 19 19 19 19 19 18 17 17 17 18 19 20 20 21 20 20 22 25 28 30 31 31 31 31 30 28 26 27 30 33 35 36 37 37 37 38 39 40 40
42 42 43 44 43 44 50 52 49 45 45 42 40 38 36 36 38 39 37 35 31 27 24 22 21 21 21 20 18 17 16 15 14 12 11 10 10 10 10 10 10 11 11 12 13 15 16 18 19 20 21 20 20 18 15 14 15 17 19 20 20 20 20 19 19 19 20 20 19 18 17 17 17 18 18 19 20 20 20 20 20 23 26 27 28 29 30 30 30 29 27 26 27 29 33 36 37 37 35 36 38 38 39
44 44 44 44 44 45 49 51 49 46 45 43 41 39 37 37 38 39 37 34 32 28 24 22 21 21 21 21 19 18 16 16 15 14 12 12 11 11 11 11 11 12 13 14 16 17 18 19 20 20 21 21 20 18 16 19 20 20 20 19 19 20 21 22 22 22 22 20 19 18 17 17 18 18 18 18 19 19 19 19 20 21 23 25 26 27 28 28 29 29 29 28 27 28 32 36 37 36 33 34 35 36 36
46 45 45 45 45 46 46 48 48 47 46 44 42 39 37 37 38 39 37 34 32 29 25 23 21 20 21 21 20 19 17 16 15 15 14 13 13 13 12 12 12 13 15 17 18 18 19 20 20 21 21 22 21 20 22 24 25 24 23 23 23 23 24 24 24 23 22 19 18 17 17 17 17 18 18 18 18 18 18 19 19 19 21 23 24 26 27 28 29 29 29 29 28 27 29 33 34 33 31 32 32 33 33
49 47 47 47 46 46 45 46 47 47 46 44 42 39 37 37 38 38 37 35 33 30 26 24 22 20 20 21 21 21 20 18 16 15 15 15 14 14 14 13 13 13 16 17 17 18 18 20 20 21 20 21 21 22 24 25 26 26 25 25 25 24 24 24 23 21 20 17 16 16 16 16 16 17 17 17 17 17 17 18 18 19 19 21 22 24 26 27 28 29 30 30 29 28 27 30 32 33 30 30 30 31 32
49 48 48 48 47 46 45 46 47 47 46 44 42 39 36 36 37 37 37 36 33 31 27 25 22 21 20 21 22 22 22 21 19 17 16 16 16 16 16 16 15 15 16 17 18 19 20 21 21 21 21 21 21 21 22 23 23 23 22 23 22 22 22 21 21 20 18 15 15 15 15 15 15 16 16 16 17 17 17 17 18 18 19 20 21 22 23 25 26 27 28 28 28 27 27 28 30 31 29 29 30 30 31
49 48 49 48 47 46 46 47 47 47 45 43 41 39 36 36 36 36 37 36 34 32 28 26 24 21 20 20 22 23 24 24 22 20 19 18 17 17 18 19 19 19 18 19 20 22 23 22 22 22 23 21 18 17 20 23 23 23 21 20 20 20 20 20 20 18 16 14 14 15 15 15 15 15 15 16 16 17 17 17 17 18 19 20 21 21 22 23 24 25 26 26 26 26 26 28 30 31 29 29 30 30 31
50 49 49 48 47 47 47 47 48 47 46 44 42 39 37 37 36 35 37 36 35 32 30 27 25 23 21 21 21 23 25 26 26 25 23 21 20 19 19 21 22 23 24 24 24 24 25 24 24 23 22 21 21 22 25 26 26 26 24 22 21 21 20 20 19 17 15 14 14 15 16 16 16 15 15 16 16 16 17 17 17 18 19 20 20 21 22 23 23 24 24 24 24 25 25 26 27 28 30 30 30 30 30
52 50 50 50 49 49 48 48 48 48 47 45 43 40 39 39 37 36 36 36 35 33 31 29 26 24 22 21 21 22 24 26 27 28 28 27 25 23 22 23 25 27 29 30 29 28 28 27 26 23 19 22 24 26 26 27 28 27 25 24 22 21 19 18 17 15 14 14 15 15 16 16 16 15 15 15 16 16 16 17 18 18 19 20 21 22 22 23 23 24 24 24 24 24 25 25 26 27 28 29 29 29 29
53 51 51 52 52 51 50 49 49 49 49 47 44 41 40 39 38 37 35 37 36 35 32 30 28 25 23 22 22 22 23 24 26 28 30 30 29 28 27 26 27 29 32 33 33 32 32 30 28 25 20 23 26 27 27 28 28 27 26 24 23 21 18 17 15 14 14 15 15 15 16 16 16 15 15 15 16 16 17 17 18 19 19 21 21 22 23 23 24 24 25 25 25 25 25 26 26 26 26 27 28 29 29
55 53 52 54 55 54 52 50 49 49 49 48 45 42 39 39 38 37 35 38 37 36 34 32 29 27 25 23 23 22 22 23 24 26 28 30 31 31 31 30 30 31 34 35 36 35 35 33 31 28 23 26 28 29 28 28 28 27 25 24 22 20 17 16 15 14 15 15 16 16 16 16 16 15 15 15 16 16 17 17 18 19 20 21 22 23 23 24 26 27 26 26 26 26 26 26 26 26 27 27 28 29 31
57 54 53 56 57 56 53 51 49 49 48 47 45 42 40 39 38 37 36 37 38 37 35 33 31 29 26 25 23 23 22 22 23 24 25 27 29 30 31 32 32 33 35 37 38 37 36 35 34 33 29 27 28 30 30 29 27 26 24 22 21 19 17 15 15 15 15 15 15 16 16 16 16 16 16 16 16 16 17 18 19 19 20 21 22 23 24 25 26 27 26 26 26 26 26 27 27 27 27 28 29 30 33
57 54 53 56 58 57 54 51 49 48 48 47 45 43 41 39 38 37 36 37 37 37 36 35 33 31 28 26 24 23 22 22 23 23 24 25 26 27 29 30 32 33 35 37 38 37 36 36 36 36 35 29 28 29 31 29 27 25 23 23 21 19 17 16 16 15 15 15 16 16 16 16 16 17 17 18 18 17 18 19 19 20 21 21 22 23 24 24 25 25 25 25 26 26 26 27 27 27 27 28 29 32 34
58 55 53 56 58 58 55 52 50 49 48 47 46 43 42 40 39 38 38 37 38 38 37 36 35 33 30 28 26 24 23 23 23 23 23 24 24 25 26 27 28 30 32 35 36 36 35 36 36 36 36 34 29 26 29 28 27 25 25 24 22 20 17 17 17 16 16 16 16 16 16 17 17 17 18 18 18 19 19 20 20 21 22 22 23 23 24 24 24 24 25 25 25 26 26 26 26 26 26 28 30 34 37
60 57 54 56 58 58 56 53 51 50 49 49 47 45 44 42 43 43 41 38 38 38 38 37 36 35 33 30 28 26 24 24 24 23 24 24 24 24 24 25 26 27 29 31 33 33 33 34 35 36 36 35 31 27 28 27 27 26 26 24 22 21 18 19 19 18 17 16 16 16 17 17 17 18 18 19 19 20 20 21 22 23 23 24 24 24 24 25 25 25 24 25 25 25 25 25 25 26 27 30 34 37 39
61 58 55 56 58 59 58 55 53 52 51 50 49 48 46 47 50 49 44 40 38 38 38 38 37 36 35 33 30 28 26 25 25 24 24 24 25 25 25 24 25 26 27 29 30 31 31 32 33 35 35 34 32 29 27 26 25 25 24 23 22 21 20 20 20 19 18 17 17 16 17 17 18 18 19 19 20 21 21 22 23 24 24 25 25 25 25 25 25 24 25 25 25 25 25 25 25 27 30 34 38 41 40
60 59 56 56 57 58 58 56 54 53 52 52 51 50 49 52 54 53 46 41 39 39 39 38 38 37 37 35 32 29 27 27 26 26 25 25 25 25 25 25 25 26 27 28 30 31 31 33 34 35 35 33 32 31 29 26 25 24 23 22 22 22 22 22 22 22 20 19 18 17 17 17 18 18 19 20 20 21 22 22 23 24 24 24 24 24 24 24 24 24 24 24 24 24 25 25 27 31 36 40 42 43 41
60 59 57 56 57 57 56 55 54 52 52 51 51 51 51 55 56 54 48 43 40 39 39 39 38 38 38 36 34 31 29 28 28 27 27 27 27 27 27 26 26 27 27 29 32 33 33 34 35 36 36 35 34 33 31 30 28 27 25 24 24 24 24 24 24 24 24 22 20 19 18 18 19 19 20 20 21 21 22 22 23 23 23 23 23 23 23 23 23 23 23 23 24 25 26 29 33 37 42 44 45 44 42
61 61 59 57 56 55 54 53 52 52 51 51 52 53 53 56 56 54 49 44 42 40 39 39 39 39 38 37 36 33 31 29 29 29 29 28 28 28 28 28 28 28 28 30 32 34 35 36 37 37 37 36 36 36 35 33 32 31 29 28 27 27 28 27 26 27 28 27 24 22 21 21 21 22 22 22 22 22 22 22 22 23 23 23 23 23 23 23 23 23 24 24 26 28 30 34 39 43 47 47 46 45 45
63 63 61 59 56 54 52 51 51 51 51 51 53 54 54 56 56 53 49 46 43 41 40 40 40 39 39 38 37 35 33 31 30 29 30 30 30 30 30 29 29 29 29 31 33 35 36 38 39 38 38 36 37 38 37 36 35 34 33 31 31 31 32 31 30 29 30 30 29 27 25 25 25 26 25 25 24 23 23 23 23 23 23 24 24 24 24 24 24 25 25 27 29 32 36 40 45 48 49 48 48 48 49
63 63 62 60 56 53 51 50 51 51 52 52 54 55 56 56 55 52 49 46 44 42 40 40 40 40 39 39 38 37 35 33 31 31 30 31 31 31 31 31 31 31 31 32 34 36 37 40 41 41 39 37 37 39 40 37 37 37 36 35 34 34 35 34 33 32 32 32 33 33 30 30 30 29 28 27 27 26 25 24 24 25 25 25 25 26 26 27 27 28 29 31 33 37 41 45 48 50 50 50 49 49 51
60 61 61 59 56 53 51 51 51 52 53 54 55 56 56 55 54 51 49 47 45 42 41 40 40 40 40 40 39 38 37 35 33 33 32 32 32 32 32 32 32 32 32 33 34 37 39 42 43 43 41 38 38 40 42 39 39 39 38 37 36 35 36 35 35 35 35 35 37 39 37 35 33 33 31 30 30 29 28 27 26 26 27 27 28 28 30 30 31 32 33 35 38 42 46 49 51 51 51 50 50 50 52
60 61 60 58 57 55 53 52 53 54 55 55 56 57 56 55 53 51 49 47 45 43 42 41 41 41 41 41 40 40 39 37 36 36 37 35 34 33 33 33 33 33 33 34 35 37 40 43 45 44 43 40 40 42 43 41 40 40 39 38 37 37 37 36 36 36 37 37 39 41 42 40 38 36 34 34 33 31 30 29 29 29 29 30 31 32 33 35 36 37 38 40 43 46 49 51 52 53 52 51 51 51 52
63 62 60 59 58 57 56 55 55 55 56 56 56 56 56 55 53 52 49 47 46 44 43 42 41 41 42 42 42 41 40 39 38 38 41 39 37 35 34 34 35 35 35 35 36 37 39 42 44 44 43 41 41 43 44 42 40 40 39 38 38 37 37 37 37 37 38 39 40 41 44 44 42 40 38 37 35 34 33 32 32 32 32 33 34 36 37 38 39 40 42 44 47 49 52 53 54 54 53 52 52 53 53
63 63 61 60 60 60 59 58 57 57 57 56 56 56 56 55 53 52 50 48 47 45 44 42 42 42 42 43 43 43 42 41 40 40 41 40 39 37 35 35 36 36 36 37 37 37 39 40 41 42 42 41 42 42 43 41 40 39 38 38 38 38 38 38 38 38 39 39 40 41 45 47 47 45 42 40 38 36 35 35 35 35 36 37 38 40 41 41 42 44 46 48 50 53 54 55 56 56 55 55 54 55 55
61 62 62 62 62 62 61 60 59 59 58 57 56 56 56 55 54 52 50 49 47 46 44 43 42 42 42 44 44 44 44 43 42 41 40 40 39 38 37 36 36 37 37 38 38 38 39 39 40 40 41 41 42 42 43 41 40 39 39 39 39 39 39 39 40 40 40 40 40 41 44 48 50 49 47 45 43 41 39 39 39 39 40 41 42 43 45 45 46 47 49 52 54 56 57 58 58 58 57 57 57 58 58
58 59 60 61 63 63 62 62 62 61 60 57 56 56 56 55 54 52 51 50 49 47 45 43 43 43 43 44 45 46 46 46 44 43 41 40 39 38 38 37 37 37 38 39 39 39 39 39 39 40 40 41 42 43 43 42 41 41 40 40 40 40 40 41 41 42 42 42 42 42 44 46 48 50 51 50 48 47 46 45 45 45 45 46 47 48 48 49 50 51 53 55 58 59 60 60 60 60 60 61 61 62 63
53 54 56 59 62 62 62 61 61 60 58 56 54 54 55 54 53 53 52 51 51 50 48 46 44 44 45 46 48 48 49 48 46 44 43 41 39 38 38 38 37 37 38 39 39 40 40 40 40 41 41 41 42 43 44 44 43 43 42 43 43 43 42 43 43 43 44 44 44 45 45 46 48 50 52 53 53 52 52 51 51 50 50 50 51 51 52 52 53 55 57 59 61 61 62 62 63 64 64 65 66 67 68
51 50 52 55 58 59 59 58 57 56 55 53 52 53 53 53 53 54 56 56 55 54 52 50 48 47 48 49 51 52 51 50 48 46 44 42 40 39 38 38 38 38 38 39 39 40 41 41 42 42 42 42 43 43 44 44 44 44 44 44 45 45 45 45 45 45 45 46 46 47 47 48 49 51 52 54 55 56 57 57 56 55 55 55 55 55 55 56 57 58 60 62 62 63 64 65 66 67 68 68 70 71 71
50 49 49 50 53 54 55 55 54 53 52 52 53 54 55 54 53 55 61 61 60 58 57 55 53 52 52 53 54 55 54 52 49 47 45 42 41 39 38 38 38 38 38 39 39 40 41 41 42 43 43 43 44 44 44 45 44 44 44 45 45 46 47 47 47 47 47 47 48 48 49 50 51 52 53 54 55 57 59 59 59 59 58 57 57 57 57 59 61 62 62 62 63 64 66 68 69 69 69 70 71 72 72
48 48 48 48 50 52 53 53 53 53 53 56 58 59 59 58 57 58 62 64 64 63 61 59 57 56 56 57 58 57 55 53 51 47 44 42 40 39 38 38 38 38 39 39 40 40 41 41 42 43 43 44 44 45 45 45 45 45 45 45 46 47 47 48 48 48 48 48 49 49 50 51 52 53 54 55 56 57 58 59 60 60 60 60 59 60 62 64 64 64 64 64 66 68 69 69 69 70 70 70 71 71 71
48 48 48 50 52 54 53 53 53 53 55 60 64 66 66 64 62 61 63 65 65 65 63 61 60 59 58 59 60 59 57 55 52 49 45 42 41 39 39 38 38 39 39 40 40 40 41 41 42 42 43 44 45 45 46 46 46 46 46 46 46 47 47 48 49 49 50 50 50 51 51 52 53 54 55 56 56 57 58 58 59 60 61 61 62 64 65 66 66 67 68 69 70 70 69 69 69 69 70 70 70 70 69
48 48 49 51 54 56 55 53 51 52 54 59 64 67 69 67 65 63 64 64 64 63 62 61 60 59 59 59 60 60 59 58 54 50 46 44 42 41 40 40 40 40 40 40 41 41 41 42 42 42 43 44 45 45 46 47 47 48 47 47 47 47 48 48 49 50 50 51 51 52 52 53 54 54 56 57 58 58 59 59 59 60 61 62 64 66 69 70 71 71 71 70 69 69 69 69 69 69 69 69 68 68 67
48 47 49 53 57 58 57 53 51 50 51 54 58 62 65 64 63 61 61 61 60 60 59 58 58 57 57 57 58 58 59 58 56 52 48 45 44 43 43 43 42 42 42 42 41 42 42 42 42 43 43 44 44 45 46 47 47 48 48 48 48 49 49 50 50 51 51 52 52 53 53 54 55 55 57 58 58 59 60 60 60 61 63 66 69 71 72 71 70 69 68 68 68 68 68 68 68 68 68 67 67 66 65
51 50 50 56 61 63 63 57 54 52 51 52 54 56 58 59 58 57 57 57 57 57 56 55 55 55 54 54 55 55 57 57 56 53 50 47 46 46 46 46 46 46 45 43 43 43 43 43 43 43 44 44 44 45 46 47 47 48 49 49 49 50 50 51 52 52 53 53 54 54 55 55 56 56 57 58 58 59 59 60 62 64 67 70 71 71 70 69 69 69 69 69 69 68 68 68 68 67 67 67 66 65 64
57 55 54 59 64 68 69 64 59 56 53 53 53 53 54 56 56 56 56 56 56 55 54 53 53 52 52 53 53 53 55 56 55 53 51 48 46 46 46 47 47 47 47 45 44 43 42 43 43 43 44 44 44 45 46 46 47 48 49 49 50 50 51 53 54 55 55 56 56 56 57 57 57 57 57 58 58 58 59 60 63 66 69 69 69 68 68 68 68 68 68 68 69 68 68 68 67 67 66 65 64 63 62
60 59 58 61 66 71 72 67 62 57 53 51 50 52 55 58 59 59 58 57 56 54 53 51 50 50 50 50 50 51 51 52 53 52 51 49 46 45 45 45 46 46 45 44 43 42 41 42 42 43 44 44 45 45 45 46 47 48 49 50 50 51 52 53 55 56 57 58 58 58 58 58 57 57 57 58 58 58 59 62 65 67 68 68 68 67 67 67 67 67 68 68 69 69 68 67 66 65 64 63 62 60 59
64 64 63 65 68 71 70 66 60 54 49 47 48 52 58 62 63 62 59 57 55 53 51 50 48 47 47 47 47 48 49 49 50 50 51 49 47 45 43 42 42 42 41 41 40 40 40 41 42 42 43 44 45 45 45 46 47 48 49 50 50 51 52 54 55 57 57 58 58 58 57 57 57 57 57 58 59 60 61 63 65 67 67 67 67 66 66 65 65 66 67 68 68 68 67 66 65 64 63 62 61 59 59
65 66 68 71 72 70 67 61 56 51 46 47 50 57 64 67 66 63 60 57 55 53 51 51 50 49 48 48 48 48 48 48 48 49 49 49 47 45 41 40 39 39 39 38 39 40 41 42 43 44 44 45 45 45 46 46 47 48 49 49 50 51 53 54 55 56 56 57 57 57 56 56 56 57 58 60 62 64 65 66 66 66 65 65 65 65 65 65 65 65 66 67 67 66 66 65 64 63 62 61 61 60 60
64 66 71 74 73 69 64 58 54 50 48 52 57 63 68 68 66 64 61 59 57 56 57 57 56 55 53 51 50 49 48 48 48 48 48 48 47 45 42 40 39 38 38 39 40 41 43 44 45 46 47 47 47 46 46 47 47 47 48 49 50 52 53 54 55 56 56 56 57 56 56 56 56 57 59 62 65 66 66 66 65 65 64 64 65 65 65 65 65 65 65 65 65 65 65 64 63 62 61 60 60 61 62
63 64 69 72 70 65 59 56 54 52 52 57 63 66 66 64 62 61 60 60 60 62 63 63 62 59 56 52 50 48 47 47 47 47 46 46 46 46 45 43 41 40 40 41 43 44 46 47 47 48 48 48 47 47 46 46 46 47 47 49 50 51 53 54 55 56 57 57 57 57 57 57 58 59 61 64 65 66 66 65 65 64 64 64 64 64 64 64 64 64 63 64 64 64 64 62 61 60 58 58 59 60 61
63 63 67 68 65 61 57 57 56 55 56 60 62 62 60 56 54 54 56 59 62 64 65 64 61 58 55 52 50 48 47 46 46 46 46 45 45 45 46 45 44 43 43 43 44 45 46 47 48 48 48 48 47 46 45 45 46 47 48 50 51 53 54 54 55 56 58 59 59 59 58 59 60 61 62 63 64 64 63 64 64 64 64 64 64 63 63 63 62 62 63 63 63 63 62 60 59 57 57 57 58 58 58
64 64 65 63 60 58 58 59 58 59 60 61 60 57 52 49 49 50 53 58 62 63 62 59 57 55 54 53 52 50 49 48 48 47 47 46 46 45 45 45 45 45 44 44 44 44 45 46 47 47 47 46 46 47 47 49 50 52 53 54 55 56 57 58 59 61 63 63 63 62 61 61 62 62 63 63 62 62 62 63 63 64 65 64 63 63 63 62 62 62 63 63 62 62 61 59 58 56 56 56 56 56 55
64 64 63 59 56 54 58 59 61 61 62 62 59 56 52 52 54 56 58 61 63 63 61 57 54 53 54 54 54 52 51 51 50 50 50 50 49 47 47 47 47 47 46 46 45 44 44 45 46 46 46 47 50 52 53 54 55 56 57 57 58 60 61 63 65 67 69 68 67 65 63 63 63 63 63 62 62 62 62 63 63 64 65 64 63 63 63 63 63 63 63 62 62 61 60 58 57 56 56 56 55 55 54
61 62 61 56 52 51 56 58 60 61 62 62 61 60 60 62 65 67 68 68 67 66 64 61 59 57 57 56 54 53 52 52 53 54 55 55 54 53 52 52 52 51 50 49 47 46 46 46 46 47 48 51 55 57 57 57 56 56 57 58 59 61 64 65 68 70 71 70 68 67 66 65 64 63 62 62 62 62 62 63 64 64 65 64 64 64 63 63 63 62 62 62 61 60 59 58 57 56 56 55 54 54 54
60 60 59 55 52 51 54 57 58 59 60 61 61 62 65 69 72 73 73 72 71 71 70 68 66 64 62 59 57 56 55 56 56 58 59 59 58 58 57 57 57 56 55 53 51 49 48 48 48 49 50 54 58 60 60 58 57 57 58 59 61 62 63 65 68 70 70 69 68 67 66 65 64 63 62 62 62 62 63 64 65 65 65 64 64 63 63 62 62 61 61 60 59 59 58 57 56 55 55 54 54 54 54
66 64 61 58 55 54 54 55 56 56 56 57 59 61 63 67 69 70 70 70 70 70 70 70 69 67 64 63 62 62 63 63 63 62 62 61 61 61 60 59 59 58 57 56 54 52 50 50 50 50 52 56 60 62 62 60 58 58 59 60 60 60 61 64 67 68 68 67 67 66 65 65 64 63 63 63 63 64 64 65 65 65 64 63 63 62 62 61 61 60 59 59 58 57 57 56 55 55 55 55 55 55 54
74 71 68 66 63 60 57 56 55 54 52 55 58 60 61 63 64 64 64 65 65 65 65 66 65 64 63 64 66 69 71 72 71 67 64 62 61 61 60 60 59 59 58 57 56 54 53 52 52 53 55 59 62 63 62 57 55 56 58 58 59 59 60 62 63 64 65 65 65 65 64 64 63 63 64 64 64 64 65 65 64 64 63 62 62 62 61 61 60 59 58 58 57 57 56 57 57 57 56 56 55 54 53
78 77 75 73 70 67 64 60 57 54 53 56 59 61 62 63 63 62 62 62 61 60 59 59 58 58 58 61 65 72 78 80 78 73 66 62 61 60 60 60 59 59 59 58 57 57 56 56 57 58 61 63 64 62 57 51 50 51 54 55 57 58 58 58 58 59 61 62 62 62 61 61 62 62 63 63 63 63 63 63 63 62 62 61 61 61 61 60 59 58 58 57 57 57 57 57 57 57 56 55 53 53 52
77 78 79 77 75 73 70 65 61 58 57 60 61 63 64 64 64 63 61 60 59 57 56 55 55 55 57 61 66 74 84 87 85 79 72 66 63 61 60 60 60 59 59 58 58 58 58 60 61 63 64 65 64 60 52 46 44 45 48 51 54 56 57 54 53 55 57 58 58 58 58 58 59 60 61 61 61 62 62 62 62 62 61 61 61 61 60 59 59 58 58 58 58 57 57 57 56 55 54 54 53 53 53
73 76 79 79 78 77 75 70 66 63 62 62 62 62 64 64 63 62 60 59 58 56 55 55 56 58 62 66 71 77 87 91 89 86 80 72 67 63 63 64 64 63 62 61 61 60 60 62 63 64 65 65 63 57 49 43 41 41 44 47 52 56 57 54 52 53 54 55 55 55 55 56 57 58 59 59 60 61 62 63 63 63 62 61 61 61 61 60 60 60 60 59 58 57 57 56 55 55 55 55 54 54 54
69 73 77 79 79 79 77 74 70 66 64 63 62 62 62 62 62 61 60 59 58 56 55 54 56 60 66 70 74 79 87 91 92 90 86 80 75 71 69 69 69 68 67 66 65 64 64 64 65 65 66 64 59 53 48 44 41 41 42 46 52 56 57 55 54 54 55 55 55 56 56 58 59 60 61 61 62 63 64 64 64 64 63 62 62 62 62 62 62 61 60 59 58 57 57 57 57 57 57 56 56 56 55
67 70 74 78 79 80 80 78 75 72 68 66 64 62 61 60 60 61 61 61 60 58 56 55 58 63 69 72 75 78 83 88 92 92 90 87 83 78 74 73 73 72 71 68 66 66 67 68 67 66 63 57 52 48 46 45 45 44 45 49 54 59 60 59 58 58 57 57 57 58 59 61 62 64 65 66 67 67 66 65 64 63 63 63 63 64 64 63 63 62 61 60 59 59 59 59 59 59 58 58 57 56 55
64 66 70 73 77 80 82 82 81 78 76 72 69 66 64 63 62 62 63 63 63 60 57 59 64 69 72 72 73 74 77 81 85 89 91 89 85 81 76 75 73 70 67 65 64 63 62 59 56 53 49 46 44 43 44 46 47 48 50 54 60 63 64 63 63 63 61 60 60 61 62 63 65 67 69 69 69 68 67 65 64 63 63 64 64 64 64 63 62 62 62 61 61 61 61 61 60 60 59 58 57 56 54
61 62 63 66 69 73 77 80 81 82 81 79 77 74 72 69 67 66 66 66 64 62 60 62 68 74 76 73 71 70 71 75 80 85 88 87 84 80 75 71 67 63 59 56 55 52 49 46 44 43 42 41 41 42 43 45 47 49 52 57 62 66 67 67 67 67 66 64 63 63 63 64 66 67 68 69 68 68 66 65 64 64 64 64 64 64 64 63 63 63 63 63 62 62 62 61 60 59 58 57 55 54 52
61 60 60 61 62 64 66 70 73 75 77 78 78 78 77 75 73 71 70 68 66 64 62 65 71 76 77 73 69 66 66 70 75 80 84 83 80 76 72 69 64 60 57 54 51 49 46 45 45 44 42 42 42 44 44 45 47 49 51 56 60 64 66 68 69 70 70 69 68 66 65 65 65 66 67 68 68 67 66 65 65 65 65 64 64 64 64 64 63 63 62 62 62 61 60 59 58 57 56 54 53 52 51
62 61 61 60 59 59 59 59 61 63 66 69 71 73 75 75 76 75 74 72 70 69 68 70 74 78 77 72 67 63 62 65 69 73 77 79 78 76 74 71 69 66 62 59 55 52 49 48 48 47 44 43 44 45 46 47 48 50 51 52 54 57 59 62 64 66 68 69 70 69 68 66 65 64 64 64 64 65 65 65 65 64 64 64 63 63 62 61 61 60 60 59 59 58 58 56 55 53 53 52 51 51 51
62 62 62 61 60 59 58 57 56 56 56 58 60 63 66 69 71 73 73 73 73 73 74 75 78 80 77 71 67 63 61 62 65 68 71 74 75 75 74 73 72 71 68 65 62 58 55 53 52 51 49 48 48 48 49 49 50 50 50 50 49 49 50 53 55 57 57 58 59 61 62 63 64 64 62 61 61 61 61 62 63 64 64 63 63 62 61 60 59 59 59 59 58 57 55 54 52 51 50 50 50 51 52
63 62 62 62 61 60 59 58 57 56 55 55 56 57 59 61 63 65 65 65 65 65 67 70 75 79 77 72 68 65 62 62 64 66 70 71 71 70 69 69 69 68 68 67 65 63 59 56 55 54 54 54 53 52 52 53 53 52 50 49 49 50 50 50 50 50 49 48 47 47 49 53 55 58 60 60 61 61 63 64 65 65 66 65 64 63 62 61 61 60 59 58 57 55 54 52 51 50 49 49 50 51 52
63 63 63 62 62 61 60 59 59 59 59 59 60 60 60 61 61 61 61 60 58 57 56 59 66 72 74 72 70 68 65 63 64 68 73 74 73 70 66 63 62 62 62 62 62 61 59 58 56 56 56 57 56 56 55 55 56 55 54 53 53 53 53 51 50 49 50 49 48 48 48 50 53 55 58 60 63 65 67 68 69 69 69 68 66 64 63 62 61 61 60 58 57 55 53 52 50 50 50 51 52 53 52
63 63 63 63 62 62 60 60 61 62 63 64 64 64 64 64 63 63 63 61 58 56 53 54 60 67 71 70 70 70 68 66 66 69 74 77 77 74 71 67 63 60 58 57 56 56 56 56 56 56 56 57 57 57 57 57 57 57 57 57 57 57 56 54 54 53 54 54 53 53 53 54 55 57 59 62 65 68 71 72 73 72 71 69 66 64 63 63 62 61 60 59 57 56 54 53 53 53 53 54 55 55 54